| time (UTC) | temp F | wind direction | speed knots | gust knots | rain 1hr in | rain 24hr in | rain mn in | humidity % | barometer mb |
| 20260505101603 | 60 | 355 | 6.1 | 13.0 | 0.00 | 0.00 | 0.00 | 69 | 995.0 |
| 20260505100055 | 60 | 355 | 7.0 | 14.8 | 0.00 | 0.00 | 0.00 | 69 | 994.2 |
| 20260505094553 | 62 | 11 | 4.3 | 11.3 | 0.00 | 0.00 | 0.00 | 69 | 993.9 |
| 20260505093046 | 64 | 328 | 4.3 | 8.7 | 0.00 | 0.00 | 0.00 | 59 | 993.4 |
| 20260505091553 | 66 | 338 | 0.9 | 5.2 | 0.00 | 0.00 | 0.00 | 38 | 993.1 |
| 20260505090051 | 69 | 304 | 2.6 | 7.8 | 0.00 | 0.00 | 0.00 | 24 | 992.6 |
| 20260505084537 | 70 | 276 | 5.2 | 9.6 | 0.00 | 0.00 | 0.00 | 23 | 992.1 |
| 20260505083040 | 75 | 322 | 6.1 | 13.0 | 0.00 | 0.00 | 0.00 | 19 | 992.0 |
| 20260505081545 | 74 | 262 | 7.8 | 13.9 | 0.00 | 0.00 | 0.00 | 21 | 991.6 |
| 20260505080037 | 75 | 263 | 7.8 | 13.9 | 0.00 | 0.00 | 0.00 | 21 | 991.3 |
| 20260505074523 | 75 | 248 | 6.1 | 10.4 | 0.00 | 0.00 | 0.00 | 21 | 991.3 |
| 20260505073021 | 75 | 257 | 6.1 | 11.3 | 0.00 | 0.00 | 0.00 | 21 | 991.6 |
| 20260505071525 | 76 | 272 | 6.1 | 12.2 | 0.00 | 0.00 | 0.00 | 20 | 991.8 |
| 20260505070023 | 75 | 252 | 7.0 | 12.2 | 0.00 | 0.00 | 0.00 | 20 | 991.8 |
| 20260505064516 | 75 | 254 | 6.1 | 11.3 | 0.00 | 0.00 | 0.00 | 20 | 991.9 |
| 20260505063015 | 75 | 279 | 5.2 | 10.4 | 0.00 | 0.00 | 0.00 | 21 | 992.0 |
| 20260505061523 | 74 | 270 | 6.1 | 12.2 | 0.00 | 0.00 | 0.00 | 21 | 992.1 |
| 20260505060011 | 75 | 267 | 5.2 | 11.3 | 0.00 | 0.00 | 0.00 | 20 | 992.2 |
| 20260505054513 | 75 | 221 | 4.3 | 8.7 | 0.00 | 0.00 | 0.00 | 19 | 992.2 |
| 20260505053004 | 74 | 239 | 7.0 | 11.3 | 0.00 | 0.00 | 0.00 | 20 | 992.4 |
| 20260505051503 | 75 | 233 | 3.5 | 7.8 | 0.00 | 0.00 | 0.00 | 20 | 992.4 |
| 20260505041559 | 72 | 228 | 2.6 | 7.8 | 0.00 | 0.00 | 0.00 | 26 | 992.7 |
| 20260505040100 | 71 | 248 | 1.7 | 2.6 | 0.00 | 0.00 | 0.00 | 28 | 992.7 |
| 20260505034558 | 73 | 232 | 0.9 | 2.6 | 0.00 | 0.00 | 0.00 | 27 | 992.8 |
| 20260505033058 | 74 | 230 | 0.9 | 1.7 | 0.00 | 0.00 | 0.00 | 24 | 992.8 |
| 20260505031605 | 76 | 244 | 0.9 | 2.6 | 0.00 | 0.00 | 0.00 | 23 | 992.7 |
| 20260505030057 | 77 | 248 | 0.9 | 2.6 | 0.00 | 0.00 | 0.00 | 22 | 992.6 |
| 20260505024609 | 78 | 184 | 1.7 | 3.5 | 0.00 | 0.00 | 0.00 | 21 | 992.3 |
| 20260505023056 | 79 | 184 | 0.9 | 3.5 | 0.00 | 0.00 | 0.00 | 20 | 992.3 |
| 20260505021611 | 79 | 206 | 0.9 | 2.6 | 0.00 | 0.00 | 0.00 | 20 | 992.3 |
| 20260505020054 | 80 | 209 | 0.9 | 3.5 | 0.00 | 0.00 | 0.00 | 20 | 992.1 |
| 20260505014554 | 81 | 228 | 0.9 | 2.6 | 0.00 | 0.00 | 0.00 | 19 | 992.1 |
| 20260505013054 | 82 | 244 | 0.9 | 2.6 | 0.00 | 0.00 | 0.00 | 18 | 992.1 |
| 20260505011557 | 84 | 225 | 1.7 | 5.2 | 0.00 | 0.00 | 0.00 | 18 | 991.9 |
| 20260505010052 | 85 | 269 | 2.6 | 6.1 | 0.00 | 0.00 | 0.00 | 17 | 991.9 |
| 20260505004551 | 85 | 285 | 4.3 | 8.7 | 0.00 | 0.00 | 0.00 | 16 | 992.1 |
| 20260505003049 | 86 | 271 | 4.3 | 10.4 | 0.00 | 0.00 | 0.00 | 16 | 992.1 |
| 20260505001548 | 86 | 264 | 7.0 | 13.9 | 0.00 | 0.00 | 0.00 | 16 | 992.3 |
| 20260505000046 | 87 | 260 | 7.8 | 13.9 | 0.00 | 0.00 | 0.00 | 15 | 992.4 |
| 20260504234543 | 87 | 246 | 11.3 | 17.4 | 0.00 | 0.00 | 0.00 | 15 | 992.7 |
| 20260504233056 | 87 | 300 | 9.6 | 17.4 | 0.00 | 0.00 | 0.00 | 15 | 992.7 |
| 20260504231542 | 87 | 257 | 8.7 | 17.4 | 0.00 | 0.00 | 0.00 | 15 | 992.7 |
| 20260504230043 | 88 | 270 | 11.3 | 20.0 | 0.00 | 0.00 | 0.00 | 15 | 992.9 |
| 20260504224540 | 88 | 260 | 11.3 | 22.6 | 0.00 | 0.00 | 0.00 | 14 | 993.1 |
| 20260504223041 | 89 | 259 | 12.2 | 18.2 | 0.00 | 0.00 | 0.00 | 14 | 992.9 |
| 20260504221545 | 89 | 273 | 13.0 | 19.1 | 0.00 | 0.00 | 0.00 | 13 | 993.0 |
| 20260504220051 | 89 | 261 | 8.7 | 20.0 | 0.00 | 0.00 | 0.00 | 14 | 993.2 |
| 20260504214537 | 89 | 265 | 7.8 | 17.4 | 0.00 | 0.00 | 0.00 | 15 | 993.2 |
| 20260504213034 | 89 | 250 | 9.6 | 22.6 | 0.00 | 0.00 | 0.00 | 15 | 993.5 |
| 20260504211532 | 89 | 292 | 9.6 | 16.5 | 0.00 | 0.00 | 0.00 | 16 | 993.3 |
| 20260504210031 | 90 | 306 | 12.2 | 22.6 | 0.00 | 0.00 | 0.00 | 15 | 993.7 |
| 20260504204541 | 90 | 246 | 5.2 | 17.4 | 0.00 | 0.00 | 0.00 | 16 | 993.8 |
| 20260504203027 | 90 | 221 | 7.8 | 16.5 | 0.00 | 0.00 | 0.00 | 15 | 994.0 |
| 20260504201524 | 90 | 215 | 9.6 | 14.8 | 0.00 | 0.00 | 0.00 | 15 | 994.3 |
| 20260504200023 | 90 | 257 | 7.0 | 11.3 | 0.00 | 0.00 | 0.00 | 16 | 994.6 |
| 20260504194519 | 90 | 279 | 6.1 | 13.9 | 0.00 | 0.00 | 0.00 | 16 | 995.0 |
| 20260504193016 | 89 | 259 | 3.5 | 16.5 | 0.00 | 0.00 | 0.00 | 14 | 995.4 |
| 20260504191515 | 89 | 286 | 4.3 | 13.9 | 0.00 | 0.00 | 0.00 | 13 | 995.6 |
| 20260504190011 | 88 | 202 | 3.5 | 9.6 | 0.00 | 0.00 | 0.00 | 15 | 995.8 |
| 20260504184513 | 87 | 260 | 6.1 | 12.2 | 0.00 | 0.00 | 0.00 | 15 | 996.0 |
| 20260504183004 | 87 | 284 | 5.2 | 13.0 | 0.00 | 0.00 | 0.00 | 17 | 996.4 |
| 20260504181609 | 86 | 298 | 7.8 | 13.9 | 0.00 | 0.00 | 0.00 | 17 | 996.6 |
| 20260504180056 | 84 | 317 | 6.1 | 12.2 | 0.00 | 0.00 | 0.00 | 18 | 997.0 |
| 20260504174553 | 84 | 323 | 4.3 | 13.9 | 0.00 | 0.00 | 0.00 | 19 | 997.2 |
| 20260504173050 | 82 | 296 | 6.1 | 13.0 | 0.00 | 0.00 | 0.00 | 21 | 997.5 |
| 20260504171546 | 81 | 287 | 5.2 | 9.6 | 0.00 | 0.00 | 0.00 | 23 | 997.6 |